星链-34948 (STARLINK-34948)

导读 | 豆包AI

STARLINK-34948是美国SpaceX星链星座下属的一颗卫星,于2025年8月14日在美国发射升空。星链项目旨在构建全球卫星互联网星座,该卫星继承星链卫星技术特点,将为全球偏远地区、海上及航空移动终端提供低时延宽带互联网服务,进一步扩充了星链星座的在轨服务规模,推动全球互联网络覆盖完善。

Basic Information
目录编号:
65191
目录名称:
STARLINK-34948
国际标识:
2025-175T
轨道中心:
EARTH
卫星名称:
星链-34948
卫星全名:
星链-34948 (STARLINK-34948)
卫星状态:
在轨 (已飞行258 天)
发射日期:
2025-08-14 UTC
国别 :
美国 (US)
星等 :
--
Orbit Information
数据来源 国际轨道数据 AOE轨道数据
星历时间 2026-04-29T11:19:23+0800
7小时前
查看轨道信息
2026-04-22T22:00:00+0800
6天前
查看轨道信息
半长轴 6927.545km 6927.67km
偏心率 0.0002198 0.0002856
轨道倾角 97.566° 97.593°
近地点辐角 65.763° 88.810°
升交点赤经 352.381° 345.943°
平近点角 294.382° 42.687°
近地点 547.885km 547.554km
远地点 550.931km 551.512km
周期 95.638分钟 95.640分钟
每日圈数 15.056838 15.056429
Detailed Information
固有亮度:
5
最大亮度:
2.5
卫星平台:
Starlink V1.0
覆盖范围:
全球
运营商:
太空探索技术公司
运营商所在国:
美国
制造商(研发单位):
太空探索技术公司
制造商所在国:
美国
使用方式:
暂无
Satellite Introduction
Starlink 计划是 SpaceX 推出的全球卫星互联网项目,通过发射低轨道卫星,为全球尤其是偏远地区提供高速、低延迟的互联网服务。自 2019 年起,Starlink 已部署数千颗卫星,旨在缩小全球数字鸿沟,推动互联网普及。该项目还为军事、航空等行业提供通信支持,带来广泛经济效益。
2D Orbit Map
3D Orbit Map
Orbit Altitude Analysis Chart
Orbit Inclination Analysis Chart
Orbit Comprehensive Analysis Chart
View Comprehensive Chart